This is the latest recevied weather packets stored in our database for station/object KD2ZLA. If no packets are shown the sender has not sent any weather packets the latest 1 day(s).
| Time | Temp. | Humidity | Pressure | Rain* | Wind** | Luminosity | Snow |
|---|---|---|---|---|---|---|---|
| 1778027780 | 10° C | 88% | 1008.1 hPa | 2.29 mm | 1.79 m/s, 233° | 0 W/m² | - |
| 1778027476 | 10° C | 88% | 1008 hPa | 2.29 mm | 1.34 m/s, 330° | 0 W/m² | - |
| 1778027172 | 10° C | 87% | 1007.7 hPa | 1.78 mm | 0.89 m/s, 286° | 0 W/m² | - |
| 1778026868 | 10.56° C | 86% | 1007.8 hPa | 1.78 mm | 0.45 m/s, 308° | 0 W/m² | - |
| 1778026564 | 10.56° C | 84% | 1007.5 hPa | 2.29 mm | 0.89 m/s, 276° | 0 W/m² | - |
| 1778026262 | 10.56° C | 82% | 1007.5 hPa | 3.05 mm | 0.45 m/s, 223° | 0 W/m² | - |
| 1778025959 | 11.11° C | 80% | 1007.5 hPa | 3.56 mm | 1.79 m/s, 311° | 1 W/m² | - |
| 1778025657 | 11.67° C | 77% | 1007.5 hPa | 3.05 mm | 2.24 m/s, 286° | 1 W/m² | - |
| 1778025355 | 12.22° C | 72% | 1007.3 hPa | 1.78 mm | 4.47 m/s, 6° | 1 W/m² | - |
| 1778025051 | 12.78° C | 69% | 1007.3 hPa | 1.27 mm | 2.24 m/s, 8° | 1 W/m² | - |
| 1778024748 | 13.33° C | 66% | 1006.9 hPa | 1.27 mm | 2.24 m/s, 347° | 2 W/m² | - |
| 1778024445 | 13.89° C | 63% | 1006.6 hPa | 0.51 mm | 1.34 m/s, 326° | 2 W/m² | - |
| 1778024143 | 13.89° C | 62% | 1006.5 hPa | 0 mm | 0.89 m/s, 285° | 2 W/m² | - |
| 1778023840 | 14.44° C | 61% | 1006.3 hPa | 0 mm | 2.68 m/s, 350° | 3 W/m² | - |
| 1778023538 | 14.44° C | 64% | 1006.1 hPa | 0 mm | 1.79 m/s, 262° | 2 W/m² | - |
| 1778023235 | 14.44° C | 64% | 1006 hPa | 0 mm | 0.89 m/s, 297° | 5 W/m² | - |
| 1778022931 | 15° C | 62% | 1006 hPa | 0 mm | 2.24 m/s, 296° | 8 W/m² | - |
| 1778022630 | 15° C | 58% | 1005.9 hPa | 0 mm | 4.47 m/s, 313° | 7 W/m² | - |
| 1778022327 | 15.56° C | 58% | 1005.5 hPa | 0 mm | 1.34 m/s, 283° | 6 W/m² | - |
| 1778022024 | 15.56° C | 58% | 1005.4 hPa | 0 mm | 2.68 m/s, 305° | 7 W/m² | - |
| 1778021720 | 15.56° C | 57% | 1005.1 hPa | 0 mm | 3.58 m/s, 321° | 14 W/m² | - |
| 1778021417 | 15.56° C | 58% | 1005.2 hPa | 0 mm | 2.68 m/s, 286° | 17 W/m² | - |
| 1778021114 | 15.56° C | 59% | 1005 hPa | 0 mm | 4.02 m/s, 319° | 22 W/m² | - |
| 1778020811 | 16.11° C | 58% | 1004.9 hPa | 0 mm | 3.13 m/s, 286° | 26 W/m² | - |
| 1778020508 | 16.11° C | 57% | 1004.9 hPa | 0 mm | 3.13 m/s, 298° | 23 W/m² | - |
* Rain latest hour (hover to see other rain measurements)
** Current wind speed in m/s (hover to see current wind gust speed)